Regional Weather Roundup
Issued by NWS Newport/Morehead, NC

Current Version | Previous Version | Graphics & Text | Print | Product List | Glossary Off
Versions: 1 2 3 4 5 6 7 8 9 10 11 12 13 14 15 16 17 18 19 20 21 22 23 24 25 26 27 28 29 30 31 32 33 34 35 36 37 38 39 40 41 42 43 44 45 46 47 48 49 50

000
ASUS42 KMHX 292113
RWRMHX
WEATHER ROUNDUP FOR EASTERN NORTH CAROLINA
NATIONAL WEATHER SERVICE NEWPORT/MOREHEAD CITY NC
500 PM EDT MON MAY 29 2017

NOTE: "FAIR" INDICATES FEW OR NO CLOUDS BELOW 12,000 FEET
WITH NO SIGNIFICANT WEATHER AND/OR OBSTRUCTIONS TO VISIBILITY

NCZ015>017-031-032-045>047-102-103-292200-
NORTH COAST

CITY           SKY/WX    TMP DP  RH WIND       PRES   REMARKS
EDENTON        PTSUNNY   88  64  44 CALM      29.94S
ELIZABETH CITY MOSUNNY   81  73  76 E12       29.95R
KITTY HAWK     CLOUDY    75  67  76 E6        29.96R
MANTEO         CLOUDY    77  67  71 E9        29.97R

$$

NCZ045>047-081-094-103-104-292200-
CENTRAL COAST

CITY           SKY/WX    TMP DP  RH WIND       PRES   REMARKS
FRISCO         CLOUDY    82  72  71 SW7       29.96R

$$

NCZ095-097-098-100-101-292200-
SOUTHERN COAST

CITY           SKY/WX    TMP DP  RH WIND       PRES   REMARKS
BEAUFORT       CLOUDY    82  71  69 SW10      29.96R
CEDAR ISLAND   NOT AVBL
JACKSONVILLE   MOSUNNY   87  71  58 S9        29.94
PINEY ISLAND   PTCLDY   N/A N/A N/A SE13      29.95R
WILMINGTON     MOSUNNY   87  69  54 S7        29.95S


$$

NCZ011>013-027>030-043-044-078>080-089-090>093-098-292200-
COASTAL PLAIN

CITY           SKY/WX    TMP DP  RH WIND       PRES   REMARKS
AHOSKIE        NOT AVBL
CLINTON        MOSUNNY   90  66  45 SW3       29.95S
ELIZABETHTOWN  SUNNY     89  66  46 SW7       29.95S
GOLDSBORO      SUNNY     90  63  40 W6        29.94S
GREENVILLE     MOSUNNY   88  64  45 W5        29.97S
HAVELOCK       NOT AVBL
KENANSVILLE    MOSUNNY   90  64  43 NW3       29.95S
KINSTON        MOSUNNY   90  63  40 W9        29.95S
NEW BERN       CLOUDY    89  64  43 NW8       29.96R
RICHLANDS      MOSUNNY   89  67  47 SW7       29.95S
ROCKY MOUNT    MOSUNNY   87  64  46 NW5       29.95S
WASHINGTON     SUNNY     87  65  49 N3        29.95R
WHITEVILLE     SUNNY     89  67  48 SW5       29.95F

$$

AMZ130-135-150-152-154-156-158-170-250-252-270-ANZ085-086-088-633-658-670-292200-
MARINE OBSERVATIONS

STATION/POSITION TIME  TEMP    WIND        PRES    WAVE   SWELL
                       AIR SEA DIR/SP/G            HT/PER HT/PER
                 (UTC) (F)     (DEG/KT/KT) (MB)    (FT/S) (FT/S)
CHESAPEAKE LIGHT NOT AVBL
64 E VA BEACH    2050   65 67   90/  4/  4 1015.6    4/ 7   3/ 7
DUCK             2048   71 71   70/ 11/ 12 1014.1
2 E DUCK         2100      71                N/A     2/ 8
OREGON INLET     2036   72 68   60/ 11/ 12 1014.4
13E OREGON INLT  2048      69                N/A     2/ 6   2/ 6
HATTERAS CG      2048   80 76  200/  8/ 11 1014.3
DIAMOND BUOY     2050   79 78  210/ 10/ 12 1014.6    3/ 6   2/ 6
CAPE LOOKOUT     2100   80     210/  9/ 12 1014.2
BEAUFORT LAB     2048   80 77  200/  7/ 10 1013.8
30 SE NEW RVR IN 2008   79 78  210/ 10/ 12 1014.9
30 SE NEW RVR IN 2043      78                N/A     3/ 6
27 SE WRIGHTSVLE NOT AVBL
5 SE WRIGHTSVLE  2008   78 77  200/ 10/ 14 1014.8
225 S CAPE HAT   2050   78 77  230/ 12/ 14 1016.5    3/ 5   2/ 8
41 SE CHARLESTON 2050   78 77  220/ 10/ 12 1015.5    2/ 4   2/ 7

$$




USA.gov is the U.S. government's official web portal to all federal, state and local government web resources and services.